This is the latest recevied weather packets stored in our database for station/object N3MFL. If no packets are shown the sender has not sent any weather packets the latest 10 day(s).
| Time | Temp. | Humidity | Pressure | Rain* | Wind** | Luminosity | Snow |
|---|---|---|---|---|---|---|---|
| 1777806235 | 6.11° C | 71% | 1008 hPa | 0 mm | - | 35 W/m² | - |
| 1777805932 | 6.11° C | 71% | 1008.1 hPa | 0 mm | - | 42 W/m² | - |
| 1777805629 | 6.11° C | 70% | 1007.9 hPa | 0 mm | - | 38 W/m² | - |
| 1777805327 | 6.11° C | 70% | 1008.1 hPa | 0 mm | - | 32 W/m² | - |
| 1777805024 | 6.11° C | 70% | 1008 hPa | 0 mm | - | 36 W/m² | - |
| 1777804721 | 6.11° C | 69% | 1007.7 hPa | 0 mm | - | 35 W/m² | - |
| 1777804419 | 6.11° C | 69% | 1007.9 hPa | 0 mm | - | 27 W/m² | - |
| 1777804111 | 6.11° C | 69% | 1007.8 hPa | 0 mm | - | 21 W/m² | - |
| 1777803807 | 6.11° C | 71% | 1007.8 hPa | 0 mm | - | 18 W/m² | - |
| 1777803503 | 6.11° C | 70% | 1007.7 hPa | 0 mm | - | 13 W/m² | - |
| 1777803202 | 6.67° C | 70% | 1007.6 hPa | 0 mm | - | 11 W/m² | - |
| 1777802898 | 6.67° C | 69% | 1007.9 hPa | 0 mm | - | 7 W/m² | - |
| 1777802596 | 6.67° C | 70% | 1007.9 hPa | 0 mm | - | 5 W/m² | - |
| 1777802293 | 6.67° C | 70% | 1007.8 hPa | 0 mm | - | 5 W/m² | - |
| 1777801992 | 6.67° C | 69% | 1008 hPa | 0 mm | - | 4 W/m² | - |
| 1777801688 | 6.67° C | 69% | 1008.2 hPa | 0 mm | - | 2 W/m² | - |
| 1777801385 | 6.67° C | 69% | 1007.9 hPa | 0 mm | - | 2 W/m² | - |
| 1777801076 | 6.67° C | 68% | 1007.9 hPa | 0 mm | - | 1 W/m² | - |
| 1777800773 | 6.67° C | 68% | 1007.8 hPa | 0 mm | - | 1 W/m² | - |
| 1777800469 | 6.67° C | 67% | 1007.9 hPa | 0 mm | - | 0 W/m² | - |
| 1777800166 | 6.67° C | 69% | 1007.7 hPa | 0 mm | - | 0 W/m² | - |
| 1777799865 | 6.67° C | 69% | 1007.8 hPa | 0 mm | - | 0 W/m² | - |
| 1777799563 | 6.67° C | 69% | 1008.1 hPa | 0 mm | - | 0 W/m² | - |
| 1777799258 | 6.67° C | 69% | 1007.9 hPa | 0 mm | - | 0 W/m² | - |
| 1777798955 | 6.67° C | 68% | 1008 hPa | 0 mm | - | 0 W/m² | - |
* Rain latest hour (hover to see other rain measurements)
** Current wind speed in m/s (hover to see current wind gust speed)